Location: Bonaustraße
(48.4603°N, 11.9280°E)
Time: 06:21:41
(UTC+02:00)

STRAND 1 - Pass Details

Date: 31 July 2021
Orbit: 768 x 781 km, 98.4° (Epoch: 26 September)

Event Time Altitude Azimuth Distance (km) Brightness Sun altitude
Rises 22:04:51 0° 3° (N) 3,257 ? -10.7°
Reaches altitude 10° 22:07:41 10° 348° (NNW) 2,323 ? -11.1°
Maximum altitude 22:11:21 20° 302° (WNW) 1,708 ? -11.5°
Drops below altitude 10° 22:15:01 10° 255° (WSW) 2,310 ? -11.9°
Sets 22:17:50 0° 239° (WSW) 3,231 ? -12.3°
